Change the Weather History Date:

Saturday, September 14, 2013

  Actual Average Record
Temperature  
Mean Temperature 58 °F -  
Max Temperature 75 °F 76 °F 90 °F (1956)
Min Temperature 44 °F 43 °F 30 °F (1952)
Degree Days  
Heating Degree Days 6    
Growing Degree Days 8 (Base 50)    
Moisture  
Dew Point 48 °F    
Average Humidity 80    
Maximum Humidity 100    
Minimum Humidity 38    
Precipitation  
Precipitation 0.03 in - - ()
Sea Level Pressure  
Sea Level Pressure 29.92 in    
Wind  
Wind Speed 1 mph (SSW)    
Max Wind Speed 9 mph    
Max Gust Speed 16 mph    
Visibility 8 miles    
Events Fog , Rain    
Averages and records for this station are not official NWS values.
T = Trace of Precipitation, MM = Missing Value Source: NWS Daily Summary

Daily Weather History Graph

Daily Weather History Graph

Search for Another Location

Airport or City:

Trip Planner

Search our weather history database for the weather conditions in past years. The results will help you decide how hot, cold, wet, or windy it might be!

Date:

Astronomy

Sep. 14, 2013 Rise Set
Actual Time 6:58 AM MDT 7:24 PM MDT
Civil Twilight 6:32 AM MDT 7:49 PM MDT
Nautical Twilight 6:02 AM MDT 8:19 PM MDT
Astronomical Twilight 5:32 AM MDT 8:50 PM MDT
Moon 4:01 PM MDT (9/14) 1:41 AM MDT (9/14)
Length of Visible Light 13h 17m
Length of Day
12h 25m
Waxing Gibbous, 73% of the Moon is Illuminated
Sep 14
Waxing Gibbous
Sep 19
Full
Sep 26
Last Quarter
Oct 4
New
Oct 11
First Quarter

Hourly Weather History & Observations

Time (MDT) Temp. Dew Point Humidity Pressure Visibility Wind Dir Wind Speed Gust Speed Precip Events Conditions
12:53 AM 52.0 °F 50.0 °F 93% 29.83 in 10.0 mi Calm Calm - N/A   Clear
1:53 AM 52.0 °F 50.0 °F 93% 29.82 in 10.0 mi Calm Calm - N/A   Clear
2:53 AM 48.9 °F 46.9 °F 93% 29.88 in 10.0 mi Calm Calm - N/A   Clear
3:53 AM 50.0 °F 48.0 °F 93% 29.85 in 10.0 mi Calm Calm - N/A   Clear
4:53 AM 48.9 °F 46.9 °F 93% 29.85 in 10.0 mi Calm Calm - N/A   Clear
5:53 AM 46.0 °F 45.0 °F 96% 29.87 in 9.0 mi Calm Calm - N/A   Clear
6:22 AM 44.6 °F 44.6 °F 100% 30.11 in 1.5 mi Calm Calm - N/A   Partly Cloudy
6:25 AM 44.6 °F 44.6 °F 100% 30.11 in 0.8 mi Calm Calm - N/A   Mist
7:12 AM 46.4 °F 44.6 °F 93% 30.12 in 1.5 mi Calm Calm - N/A   Scattered Clouds
7:14 AM 46.4 °F 44.6 °F 93% 30.12 in 4.0 mi Calm Calm - N/A   Scattered Clouds
7:20 AM 46.4 °F 44.6 °F 93% 30.12 in 0.8 mi Calm Calm - N/A   Mist
7:53 AM 46.0 °F 46.0 °F 100% 29.92 in 0.2 mi Calm Calm - N/A Fog Fog
8:13 AM 48.2 °F 48.2 °F 100% 30.13 in 1.2 mi Calm Calm - N/A   Mostly Cloudy
8:16 AM 48.2 °F 48.2 °F 100% 30.13 in 4.0 mi Calm Calm - N/A   Mostly Cloudy
8:43 AM 50.0 °F 48.2 °F 94% 30.14 in 9.0 mi Calm Calm - N/A   Mostly Cloudy
8:53 AM 50.0 °F 48.9 °F 96% 29.91 in 10.0 mi Calm Calm - N/A   Mostly Cloudy
9:04 AM 51.8 °F 50.0 °F 94% 30.14 in 10.0 mi Calm Calm - N/A   Scattered Clouds
9:53 AM 57.9 °F 50.0 °F 75% 29.89 in 10.0 mi Calm Calm - N/A   Clear
10:53 AM 64.0 °F 52.0 °F 65% 29.86 in 10.0 mi South 5.8 mph - N/A   Clear
11:53 AM 69.1 °F 53.1 °F 57% 29.82 in 10.0 mi South 6.9 mph - N/A   Clear
12:53 PM 72.0 °F 51.1 °F 48% 29.79 in 10.0 mi South 8.1 mph - N/A   Scattered Clouds
1:53 PM 73.0 °F 46.9 °F 39% 29.75 in 10.0 mi Variable 5.8 mph 16.1 mph N/A   Partly Cloudy
2:53 PM 71.1 °F 46.0 °F 41% 29.77 in 10.0 mi West 9.2 mph - N/A   Overcast
3:53 PM 72.0 °F 45.0 °F 38% 29.74 in 10.0 mi West 8.1 mph - N/A   Mostly Cloudy
4:53 PM 71.1 °F 46.9 °F 42% 29.74 in 10.0 mi West 4.6 mph - N/A   Partly Cloudy
5:53 PM 66.0 °F 51.1 °F 59% 29.81 in 10.0 mi North 9.2 mph - 0.02 in Rain Light Rain
6:53 PM 63.0 °F 48.0 °F 58% 29.82 in 10.0 mi East 4.6 mph - 0.00 in   Scattered Clouds
7:53 PM 60.1 °F 51.1 °F 72% 29.86 in 10.0 mi ENE 9.2 mph - 0.00 in   Mostly Cloudy
8:53 PM 57.0 °F 51.1 °F 81% 29.88 in 10.0 mi Calm Calm - N/A   Partly Cloudy
9:53 PM 57.0 °F 52.0 °F 83% 29.86 in 9.0 mi Calm Calm - 0.01 in Rain Light Rain
10:53 PM 57.0 °F 53.1 °F 87% 29.85 in 10.0 mi ESE 4.6 mph - 0.00 in   Overcast
11:53 PM 57.0 °F 54.0 °F 89% 29.85 in 10.0 mi North 3.5 mph - 0.00 in Rain Light Rain